Content
SEND FEEDBACK

Daily
Averages
Monthly
Summary
Mexico

PUERTO MORELOS, QUINTANA ROO


Home > North America > Mexico > Quintana Roo
Elevation: 20 feet     Latitude: 20 51N     Longitude: 086 52W

WEATHER
 
SELECT A DAY
Number of Records: 167,785;   Date Range: 1/1/95 - 12/19/14
 
SHARE

PRINT THIS DATA

[ ← Previous Day ]
WEATHER ALMANAC - FEBRUARY 25, 2013
[ Next Day → ]
[ °C ]   °F
Weather ElementAverageHighLow
Temperature80.4 °F84.2 °F (10:40 am)77 °F (2:46 am)
Dewpoint70 °F71.6 °F (2:44 pm)68 °F (4:44 am)
Humidity70.6 %78 % (2:46 am)62 % (8:43 am)
Barometer29.77 in29.81 in (6:44 am)29.70 in (3:43 pm)
Wind Speed14.7 mph23 mph (9:47 am)
Wind Gust28.8 mph (1:40 pm)
Weather ElementAverage
Visibility7 mi
Wind DirectionSSE (152.2 °)

Weather ElementTotal
Precipitation---
Cooling Degree Days15.6 (Base 65)
Growing Degree Days30.6 (Base 50)
Averaged from 23 records on February 25, 2013
WEATHER CONDITIONS BREAKOUT
WIND DIRECTION BREAKOUT
WEATHER BY HOUR - FEBRUARY 25, 2013
[ °C ]   °F
Local TimeTemperatureDewpointHumidityBarometerVisibilityWind DirectionWind SpeedGust SpeedPrecipitationEventsConditions
1:44 AM78.8 °F69.8 °F74 %29.79 in7.0 miSSE (150°)16.1 mphPartly Cloudy
2:46 AM77.0 °F69.8 °F78 %29.78 in7.0 miSSE (150°)12.7 mphScattered Clouds
3:45 AM77.0 °F69.8 °F78 %29.78 in7.0 miSSE (150°)15.0 mphScattered Clouds
4:44 AM77.0 °F68.0 °F74 %29.77 in7.0 miSSE (150°)11.5 mph24.2 mphScattered Clouds
5:43 AM77.0 °F68.0 °F74 %29.80 in7.0 miSE (140°)6.9 mphScattered Clouds
6:44 AM78.8 °F68.0 °F69 %29.81 in7.0 miSSE (150°)10.4 mph21.9 mphPartly Cloudy
7:42 AM80.6 °F68.0 °F65 %29.80 in7.0 miSSE (160°)16.1 mphScattered Clouds
8:43 AM82.4 °F68.0 °F62 %29.81 in7.0 miSSE (160°)19.6 mphScattered Clouds
9:47 AM82.4 °F69.8 °F66 %29.80 in7.0 miSSE (160°)23.0 mphMostly Cloudy
10:40 AM84.2 °F69.8 °F62 %29.78 in7.0 miSSE (150°)23.0 mphMostly Cloudy
11:51 AM84.2 °F69.8 °F62 %29.77 in7.0 miSSE (160°)18.4 mphMostly Cloudy
12:41 PM84.2 °F69.8 °F62 %29.74 in7.0 miSSE (160°)19.6 mphMostly Cloudy
1:40 PM84.2 °F69.8 °F62 %29.72 in7.0 miSSE (160°)17.3 mph28.8 mphMostly Cloudy
2:44 PM84.2 °F71.6 °F66 %29.72 in7.0 miSSE (160°)13.8 mphScattered Clouds
3:43 PM82.4 °F71.6 °F70 %29.70 in7.0 miSouth (170°)13.8 mphScattered Clouds
4:42 PM82.4 °F71.6 °F70 %29.71 in7.0 miSE (140°)18.4 mphScattered Clouds
5:45 PM80.6 °F71.6 °F74 %29.71 in7.0 miSE (140°)13.8 mphPartly Cloudy
6:48 PM78.8 °F69.8 °F74 %29.73 in7.0 miSSE (150°)10.4 mphPartly Cloudy
7:41 PM78.8 °F71.6 °F78 %29.75 in7.0 miSSE (150°)13.8 mphPartly Cloudy
8:41 PM78.8 °F69.8 °F74 %29.79 in7.0 miSE (140°)11.5 mphPartly Cloudy
9:48 PM78.8 °F71.6 °F78 %29.78 in7.0 miSSE (150°)11.5 mphScattered Clouds
10:43 PM78.8 °F69.8 °F74 %29.79 in7.0 miSSE (150°)11.5 mphPartly Cloudy
11:49 PM78.8 °F71.6 °F78 %29.78 in7.0 miSSE (150°)10.4 mphPartly Cloudy
Hourly data recorded from MMUN, located miles away from Puerto Morelos, Quintana Roo







STORIES FROM OUR PARTNERS